Terminal Aerodrome Forecast
Issued by NWS Bismarck, ND

Home | Current Version | Previous Version | Graphics & Text | Print | Product List | Glossary On
Versions: 1 2 3 4 5 6 7 8 9 10 11 12 13 14 15 16 17 18 19 20 21 22 23 24 25 26 27 28 29 30 31 32 33 34
346
FTUS43 KBIS 242320
TAFISN
TAF
KISN 242320Z 2500/2524 22006KT P6SM OVC090
     FM251000 29004KT P6SM VCSH BKN015
     FM251300 33006KT P6SM OVC008
     FM251900 27007KT P6SM BKN008=

USA.gov is the U.S. government's official web portal to all federal, state and local government web resources and services.